Orbital elements of COSMOS 2251 DEB
| Launched | 15 June 1993 |
| Flight ended | – |
| Launch site | Plesetsk Missile and Space Complex, Russia |
| Owner | Commonwealth of Independent States (former USSR) |
| NORAD ID | 33836 |
| Date fetched |
Epoch osculation |
Inc. [°] |
Ecc. | RA asc node [hr] |
Arg Peri. [°] |
Mean anom [°] |
Mean motion [rev/day] |
Abs. mag |
| Date fetched |
Epoch osculation |
Inc. [°] |
Ecc. | RA asc node [hr] |
Arg Peri. [°] |
Mean anom [°] |
Mean motion [rev/day] |
Abs. mag |
| 2026 May 04 17:57 | 2026 Apr 30 01:40:08 | 73.9974 | 0.00253 | 23.0246 | 160.6203 | 351.4875 | 14.82343 | – |
| 2026 May 03 17:57 | 2026 Apr 30 01:40:08 | 73.9974 | 0.00253 | 23.0246 | 160.6203 | 351.4875 | 14.82343 | – |
| 2026 May 02 17:57 | 2026 Apr 30 01:40:08 | 73.9974 | 0.00253 | 23.0246 | 160.6203 | 351.4875 | 14.82343 | – |
| 2026 May 01 17:56 | 2026 Apr 30 01:40:08 | 73.9974 | 0.00253 | 23.0246 | 160.6203 | 351.4875 | 14.82343 | – |
| 2026 Apr 30 17:56 | 2026 Apr 30 01:40:08 | 73.9974 | 0.00253 | 23.0246 | 160.6203 | 351.4875 | 14.82343 | – |
| 2026 Apr 29 17:57 | 2026 Apr 24 03:01:05 | 73.9979 | 0.00255 | 23.8098 | 174.1088 | 351.4875 | 14.82343 | – |
| 2026 Apr 28 17:56 | 2026 Apr 24 03:01:05 | 73.9979 | 0.00255 | 23.8098 | 174.1088 | 351.4875 | 14.82343 | – |
| 2026 Apr 27 17:58 | 2026 Apr 24 03:01:05 | 73.9979 | 0.00255 | 23.8098 | 174.1088 | 351.4875 | 14.82343 | – |
| 2026 Apr 26 17:58 | 2026 Apr 24 03:01:05 | 73.9979 | 0.00255 | 23.8098 | 174.1088 | 351.4875 | 14.82343 | – |
| 2026 Apr 25 17:58 | 2026 Apr 24 03:01:05 | 73.9979 | 0.00255 | 23.8098 | 174.1088 | 351.4875 | 14.82343 | – |
| 2026 Apr 24 17:59 | 2026 Apr 24 03:01:05 | 73.9979 | 0.00255 | 23.8098 | 174.1088 | 351.4875 | 14.82343 | – |
| 2026 Apr 23 17:57 | 2026 Apr 19 11:27:52 | 73.9984 | 0.00257 | 0.4238 | 184.7450 | 351.4875 | 14.82343 | – |
| 2026 Apr 22 17:57 | 2026 Apr 19 11:27:52 | 73.9984 | 0.00257 | 0.4238 | 184.7450 | 351.4875 | 14.82343 | – |
| 2026 Apr 21 17:57 | 2026 Apr 19 11:27:52 | 73.9984 | 0.00257 | 0.4238 | 184.7450 | 351.4875 | 14.82343 | – |
| 2026 Apr 20 17:57 | 2026 Apr 19 11:27:52 | 73.9984 | 0.00257 | 0.4238 | 184.7450 | 351.4875 | 14.82343 | – |
| 2026 Apr 19 17:58 | 2026 Apr 19 11:27:52 | 73.9984 | 0.00257 | 0.4238 | 184.7450 | 351.4875 | 14.82343 | – |
| 2026 Apr 18 17:56 | 2026 Apr 13 04:41:49 | 73.9984 | 0.00259 | 1.2534 | 199.0223 | 351.4875 | 14.82343 | – |
| 2026 Apr 16 17:57 | 2026 Apr 13 04:41:49 | 73.9984 | 0.00259 | 1.2534 | 199.0223 | 351.4875 | 14.82343 | – |
| 2026 Apr 14 17:57 | 2026 Apr 13 04:41:49 | 73.9984 | 0.00259 | 1.2534 | 199.0223 | 351.4875 | 14.82343 | – |
| 2026 Apr 13 17:57 | 2026 Apr 13 04:41:49 | 73.9984 | 0.00259 | 1.2534 | 199.0223 | 351.4875 | 14.82343 | – |
| 2026 Apr 12 17:57 | 2026 Apr 08 06:27:13 | 73.9983 | 0.00262 | 1.9041 | 210.0506 | 351.4875 | 14.82343 | – |
| 2026 Apr 11 17:57 | 2026 Apr 08 06:27:13 | 73.9983 | 0.00262 | 1.9041 | 210.0506 | 351.4875 | 14.82343 | – |
| 2026 Apr 10 17:58 | 2026 Apr 08 06:27:13 | 73.9983 | 0.00262 | 1.9041 | 210.0506 | 351.4875 | 14.82343 | – |
| 2026 Apr 09 18:01 | 2026 Apr 08 06:27:13 | 73.9983 | 0.00262 | 1.9041 | 210.0506 | 351.4875 | 14.82343 | – |
| 2026 Apr 08 17:57 | 2026 Apr 08 06:27:13 | 73.9983 | 0.00262 | 1.9041 | 210.0506 | 351.4875 | 14.82343 | – |
| 2026 Apr 07 17:57 | 2026 Apr 02 04:14:00 | 73.9980 | 0.00264 | 2.7086 | 223.9091 | 351.4875 | 14.82343 | – |